Year,Month,Day,Hour,Minute,Value (Times are PST for temperature in C)
2013,08,26,00,00,14.40
2013,08,26,00,01,14.40
2013,08,26,00,02,14.30
2013,08,26,00,03,14.30
2013,08,26,00,04,14.30
2013,08,26,00,05,14.30
2013,08,26,00,06,14.30
2013,08,26,00,07,14.30
2013,08,26,00,08,14.20
2013,08,26,00,09,14.20
2013,08,26,00,10,14.20
2013,08,26,00,11,14.20
2013,08,26,00,12,14.20
2013,08,26,00,13,14.20
2013,08,26,00,14,14.20
2013,08,26,00,15,14.20
2013,08,26,00,16,14.20
2013,08,26,00,17,14.20
2013,08,26,00,18,14.20
2013,08,26,00,19,14.20
2013,08,26,00,20,14.20
2013,08,26,00,21,14.20
2013,08,26,00,22,14.10
2013,08,26,00,23,14.10
2013,08,26,00,24,14.10
2013,08,26,00,25,14.10
2013,08,26,00,26,14.10
2013,08,26,00,27,14.10
2013,08,26,00,28,14.10
2013,08,26,00,29,14.10
2013,08,26,00,30,14.10
2013,08,26,00,31,14.10
2013,08,26,00,32,14.10
2013,08,26,00,33,14.10
2013,08,26,00,34,14.10
2013,08,26,00,35,14.10
2013,08,26,00,36,14.10
2013,08,26,00,37,14.10
2013,08,26,00,38,14.10
2013,08,26,00,39,14.10
2013,08,26,00,40,14.00
2013,08,26,00,41,14.00
2013,08,26,00,42,14.00
2013,08,26,00,43,13.90
2013,08,26,00,44,13.90
2013,08,26,00,45,13.80
2013,08,26,00,46,13.80
2013,08,26,00,47,13.80
2013,08,26,00,48,13.70
2013,08,26,00,49,13.70
2013,08,26,00,50,13.70
2013,08,26,00,51,13.70
2013,08,26,00,52,13.70
2013,08,26,00,53,13.70
2013,08,26,00,54,13.60
2013,08,26,00,55,13.60
2013,08,26,00,56,13.60
2013,08,26,00,57,13.50
2013,08,26,00,58,13.50
2013,08,26,00,59,13.50
2013,08,26,01,00,13.40
2013,08,26,01,01,13.40
2013,08,26,01,02,13.40
2013,08,26,01,03,13.30
2013,08,26,01,04,13.30
2013,08,26,01,05,13.30
2013,08,26,01,06,13.30
2013,08,26,01,07,13.30
2013,08,26,01,08,13.30
2013,08,26,01,09,13.30
2013,08,26,01,10,13.30
2013,08,26,01,11,13.20
2013,08,26,01,12,13.20
2013,08,26,01,13,13.20
2013,08,26,01,14,13.20
2013,08,26,01,15,13.20
2013,08,26,01,16,13.20
2013,08,26,01,17,13.20
2013,08,26,01,18,13.20
2013,08,26,01,19,13.10
2013,08,26,01,20,13.10
2013,08,26,01,21,13.10
2013,08,26,01,22,13.10
2013,08,26,01,23,13.00
2013,08,26,01,24,12.90
2013,08,26,01,25,12.90
2013,08,26,01,26,12.80
2013,08,26,01,27,12.80
2013,08,26,01,28,12.80
2013,08,26,01,29,12.80
2013,08,26,01,30,12.70
2013,08,26,01,31,12.70
2013,08,26,01,32,12.70
2013,08,26,01,33,12.70
2013,08,26,01,34,12.70
2013,08,26,01,35,12.70
2013,08,26,01,36,12.70
2013,08,26,01,37,12.70
2013,08,26,01,38,12.70
2013,08,26,01,39,12.70
2013,08,26,01,40,12.70
2013,08,26,01,41,12.70
2013,08,26,01,42,12.60
2013,08,26,01,43,12.60
2013,08,26,01,44,12.60
2013,08,26,01,45,12.50
2013,08,26,01,46,12.50
2013,08,26,01,47,12.40
2013,08,26,01,48,12.40
2013,08,26,01,49,12.40
2013,08,26,01,50,12.30
2013,08,26,01,51,12.30
2013,08,26,01,52,12.30
2013,08,26,01,53,12.30
2013,08,26,01,54,12.30
2013,08,26,01,55,12.30
2013,08,26,01,56,12.30
2013,08,26,01,57,12.30
2013,08,26,01,58,12.30
2013,08,26,01,59,12.30
2013,08,26,02,00,12.30
2013,08,26,02,01,12.30
2013,08,26,02,02,12.30
2013,08,26,02,03,12.30
2013,08,26,02,04,12.30
2013,08,26,02,05,12.30
2013,08,26,02,06,12.30
2013,08,26,02,07,12.40
2013,08,26,02,08,12.40
2013,08,26,02,09,12.40
2013,08,26,02,10,12.30
2013,08,26,02,11,12.30
2013,08,26,02,12,12.30
2013,08,26,02,13,12.30
2013,08,26,02,14,12.30
2013,08,26,02,15,12.30
2013,08,26,02,16,12.30
2013,08,26,02,17,12.20
2013,08,26,02,18,12.20
2013,08,26,02,19,12.20
2013,08,26,02,20,12.20
2013,08,26,02,21,12.10
2013,08,26,02,22,12.10
2013,08,26,02,23,12.00
2013,08,26,02,24,12.00
2013,08,26,02,25,12.00
2013,08,26,02,26,12.00
2013,08,26,02,27,12.00
2013,08,26,02,28,12.00
2013,08,26,02,29,12.00
2013,08,26,02,30,12.00
2013,08,26,02,31,12.00
2013,08,26,02,32,12.00
2013,08,26,02,33,12.00
2013,08,26,02,34,12.00
2013,08,26,02,35,12.00
2013,08,26,02,36,12.00
2013,08,26,06,51,9.00
2013,08,26,06,52,9.00
2013,08,26,06,53,9.00
2013,08,26,06,54,9.00
2013,08,26,06,55,9.00
2013,08,26,06,56,9.00
2013,08,26,06,57,9.00
2013,08,26,06,58,9.00
2013,08,26,06,59,9.00
2013,08,26,07,00,9.00
2013,08,26,07,01,9.00
2013,08,26,07,02,9.00
2013,08,26,07,03,9.10
2013,08,26,07,04,9.10
2013,08,26,07,05,9.10
2013,08,26,07,06,9.10
2013,08,26,07,07,9.10
2013,08,26,07,08,9.20
2013,08,26,07,09,9.20
2013,08,26,07,10,9.20
2013,08,26,07,11,9.20
2013,08,26,07,12,9.20
2013,08,26,07,13,9.20
2013,08,26,07,14,9.20
2013,08,26,07,15,9.20
2013,08,26,07,16,9.20
2013,08,26,07,17,9.20
2013,08,26,07,18,9.20
2013,08,26,07,19,9.20
2013,08,26,07,20,9.20
2013,08,26,07,21,9.30
2013,08,26,07,22,9.30
2013,08,26,07,23,9.30
2013,08,26,07,24,9.30
2013,08,26,07,25,9.40
2013,08,26,07,26,9.40
2013,08,26,07,27,9.40
2013,08,26,07,28,9.50
2013,08,26,07,29,9.50
2013,08,26,07,30,9.60
2013,08,26,07,31,9.60
2013,08,26,07,32,9.70
2013,08,26,07,33,9.70
2013,08,26,07,34,9.70
2013,08,26,07,35,9.80
2013,08,26,07,36,9.80
2013,08,26,07,37,9.90
2013,08,26,07,38,9.90
2013,08,26,07,39,9.90
2013,08,26,07,40,10.10
2013,08,26,07,41,10.10
2013,08,26,07,42,10.10
2013,08,26,07,43,10.20
2013,08,26,07,44,10.30
2013,08,26,07,45,10.30
2013,08,26,07,46,10.40
2013,08,26,07,47,10.40
2013,08,26,07,48,10.60
2013,08,26,07,49,10.60
2013,08,26,07,50,10.60
2013,08,26,07,51,10.70
2013,08,26,07,52,10.80
2013,08,26,07,53,10.90
2013,08,26,07,54,10.90
2013,08,26,07,55,11.10
2013,08,26,07,56,11.10
2013,08,26,07,57,11.20
2013,08,26,07,58,11.30
2013,08,26,07,59,11.40
2013,08,26,08,00,11.40
2013,08,26,08,01,11.60
2013,08,26,08,02,11.60
2013,08,26,08,03,11.70
2013,08,26,08,04,11.80
2013,08,26,08,05,11.80
2013,08,26,08,06,11.80
2013,08,26,08,07,11.80
2013,08,26,08,08,11.80
2013,08,26,08,09,11.80
2013,08,26,08,10,11.80
2013,08,26,08,11,11.80
2013,08,26,08,12,11.80
2013,08,26,08,13,11.80
2013,08,26,08,14,11.80
2013,08,26,08,15,11.90
2013,08,26,08,16,11.90
2013,08,26,08,17,12.00
2013,08,26,08,18,12.00
2013,08,26,08,19,12.10
2013,08,26,08,20,12.20
2013,08,26,08,21,12.20
2013,08,26,08,22,12.20
2013,08,26,08,23,12.30
2013,08,26,08,24,12.30
2013,08,26,08,25,12.30
2013,08,26,08,26,12.20
2013,08,26,08,27,12.20
2013,08,26,08,28,12.10
2013,08,26,08,29,12.10
2013,08,26,08,30,12.00
2013,08,26,08,31,12.00
2013,08,26,08,32,12.00
2013,08,26,08,33,12.00
2013,08,26,08,34,11.90
2013,08,26,08,35,12.00
2013,08,26,08,36,12.00
2013,08,26,08,37,12.00
2013,08,26,08,38,12.10
2013,08,26,08,39,12.20
2013,08,26,08,40,12.30
2013,08,26,08,41,12.30
2013,08,26,08,42,12.40
2013,08,26,08,43,12.50
2013,08,26,08,44,12.60
2013,08,26,08,45,12.70
2013,08,26,08,46,12.80
2013,08,26,08,47,12.80
2013,08,26,08,48,12.80
2013,08,26,08,49,12.90
2013,08,26,08,50,12.90
2013,08,26,08,51,12.90
2013,08,26,08,52,13.00
2013,08,26,08,53,13.10
2013,08,26,08,54,13.10
2013,08,26,08,55,13.20
2013,08,26,08,56,13.20
2013,08,26,08,57,13.20
2013,08,26,08,58,13.20
2013,08,26,08,59,13.20
2013,08,26,09,00,13.10
2013,08,26,09,01,13.10
2013,08,26,09,02,13.00
2013,08,26,09,03,13.00
2013,08,26,09,04,12.90
2013,08,26,09,05,12.90
2013,08,26,09,06,12.90
2013,08,26,09,07,12.80
2013,08,26,09,08,12.80
2013,08,26,09,09,12.80
2013,08,26,09,10,12.80
2013,08,26,09,11,12.80
2013,08,26,09,12,12.80
2013,08,26,09,13,12.90
2013,08,26,09,14,12.90
2013,08,26,09,15,12.90
2013,08,26,09,16,13.00
2013,08,26,09,17,13.10
2013,08,26,09,18,13.20
2013,08,26,09,19,13.20
2013,08,26,09,20,13.30
2013,08,26,09,21,13.30
2013,08,26,09,22,13.40
2013,08,26,09,23,13.40
2013,08,26,09,24,13.50
2013,08,26,09,25,13.50
2013,08,26,09,26,13.60
2013,08,26,09,27,13.60
2013,08,26,09,28,13.70
2013,08,26,09,29,13.70
2013,08,26,09,30,13.70
2013,08,26,09,31,13.80
2013,08,26,09,32,13.80
2013,08,26,09,33,13.80
2013,08,26,09,34,13.90
2013,08,26,09,35,13.90
2013,08,26,09,36,14.00
2013,08,26,09,37,14.00
2013,08,26,09,38,14.00
2013,08,26,09,39,14.10
2013,08,26,09,40,14.10
2013,08,26,09,41,14.10
2013,08,26,09,42,14.00
2013,08,26,09,43,14.00
2013,08,26,09,44,14.00
2013,08,26,09,45,14.00
2013,08,26,09,46,14.10
2013,08,26,09,47,14.10
2013,08,26,09,48,14.20
2013,08,26,09,49,14.20
2013,08,26,09,50,14.20
2013,08,26,09,51,14.20
2013,08,26,09,52,14.20
2013,08,26,09,53,14.20
2013,08,26,09,54,14.20
2013,08,26,09,55,14.30
2013,08,26,09,56,14.30
2013,08,26,09,57,14.30
2013,08,26,09,58,14.30
2013,08,26,09,59,14.30
2013,08,26,10,00,14.30
2013,08,26,10,01,14.40
2013,08,26,10,02,14.40
2013,08,26,10,03,14.50
2013,08,26,10,04,14.50
2013,08,26,10,05,14.60
2013,08,26,10,06,14.70
2013,08,26,10,07,14.70
2013,08,26,10,08,14.80
2013,08,26,10,09,14.80
2013,08,26,10,10,14.80
2013,08,26,10,11,14.80
2013,08,26,10,12,14.80
2013,08,26,10,13,14.70
2013,08,26,10,14,14.70
2013,08,26,10,15,14.60
2013,08,26,10,16,14.60
2013,08,26,10,17,14.60
2013,08,26,10,18,14.60
2013,08,26,10,19,14.60
2013,08,26,10,20,14.70
2013,08,26,10,21,14.70
2013,08,26,10,22,14.80
2013,08,26,10,23,14.80
2013,08,26,10,24,15.00
2013,08,26,10,25,15.10
2013,08,26,10,26,15.20
2013,08,26,10,27,15.30
2013,08,26,10,28,15.30
2013,08,26,10,29,15.30
2013,08,26,10,30,15.40
2013,08,26,10,31,15.40
2013,08,26,10,32,15.30
2013,08,26,10,33,15.30
2013,08,26,10,34,15.30
2013,08,26,10,35,15.30
2013,08,26,10,36,15.30
2013,08,26,10,37,15.30
2013,08,26,10,38,15.40
2013,08,26,10,39,15.40
2013,08,26,10,40,15.40
2013,08,26,10,41,15.40
2013,08,26,10,42,15.40
2013,08,26,10,43,15.40
2013,08,26,10,44,15.40
2013,08,26,10,45,15.40
2013,08,26,10,46,15.30
2013,08,26,10,47,15.30
2013,08,26,10,48,15.30
2013,08,26,10,49,15.40
2013,08,26,10,50,15.40
2013,08,26,10,51,15.50
2013,08,26,10,52,15.60
2013,08,26,10,53,15.60
2013,08,26,10,54,15.70
2013,08,26,10,55,15.70
2013,08,26,10,56,15.70
2013,08,26,10,57,15.80
2013,08,26,10,58,15.80
2013,08,26,10,59,15.80
2013,08,26,11,00,15.80
2013,08,26,11,01,15.80
2013,08,26,11,02,15.90
2013,08,26,11,03,16.10
2013,08,26,11,04,16.10
2013,08,26,11,05,16.10
2013,08,26,11,06,16.10
2013,08,26,11,07,16.10
2013,08,26,11,08,16.20
2013,08,26,11,09,16.30
2013,08,26,11,10,16.40
2013,08,26,11,11,16.40
2013,08,26,11,12,16.60
2013,08,26,11,13,16.70
2013,08,26,11,14,16.70
2013,08,26,11,15,16.70
2013,08,26,11,16,16.80
2013,08,26,11,17,16.90
2013,08,26,11,18,16.90
2013,08,26,11,19,17.00
2013,08,26,11,20,17.00
2013,08,26,11,21,17.00
2013,08,26,11,22,17.00
2013,08,26,11,23,16.90
2013,08,26,11,24,17.00
2013,08,26,11,25,17.00
2013,08,26,11,26,17.10
2013,08,26,11,27,17.20
2013,08,26,11,28,17.30
2013,08,26,11,29,17.30
2013,08,26,11,30,17.30
2013,08,26,11,31,17.40
2013,08,26,11,32,17.50
2013,08,26,11,33,17.50
2013,08,26,11,34,17.60
2013,08,26,11,35,17.70
2013,08,26,11,36,17.80
2013,08,26,11,37,17.90
2013,08,26,11,38,17.90
2013,08,26,11,39,18.10
2013,08,26,11,40,18.20
2013,08,26,11,41,18.20
2013,08,26,11,42,18.20
2013,08,26,11,43,18.10
2013,08,26,11,44,18.10
2013,08,26,11,45,18.10
2013,08,26,11,46,18.10
2013,08,26,11,47,18.10
2013,08,26,11,48,18.10
2013,08,26,11,49,18.10
2013,08,26,11,50,18.10
2013,08,26,11,51,18.10
2013,08,26,11,52,18.10
2013,08,26,11,53,17.90
2013,08,26,11,54,17.90
2013,08,26,11,55,17.80
2013,08,26,11,56,17.80
2013,08,26,11,57,17.80
2013,08,26,11,58,17.90
2013,08,26,11,59,17.90
2013,08,26,12,00,17.90
2013,08,26,12,01,17.90
2013,08,26,12,02,17.90
2013,08,26,12,03,17.90
2013,08,26,12,04,17.90
2013,08,26,12,05,17.90
2013,08,26,12,06,18.10
2013,08,26,12,07,18.20
2013,08,26,12,08,18.20
2013,08,26,12,09,18.20
2013,08,26,12,10,18.20
2013,08,26,12,11,18.20
2013,08,26,12,12,18.30
2013,08,26,12,13,18.30
2013,08,26,12,14,18.40
2013,08,26,12,15,18.40
2013,08,26,12,16,18.50
2013,08,26,12,17,18.50
2013,08,26,12,18,18.60
2013,08,26,12,19,18.70
2013,08,26,12,20,18.70
2013,08,26,12,21,18.70
2013,08,26,12,22,18.80
2013,08,26,12,23,18.80
2013,08,26,12,24,18.90
2013,08,26,12,25,18.90
2013,08,26,12,26,18.90
2013,08,26,12,27,19.10
2013,08,26,12,28,19.10
2013,08,26,12,29,19.10
2013,08,26,12,30,19.10
2013,08,26,12,31,19.10
2013,08,26,12,32,19.20
2013,08,26,12,33,19.30
2013,08,26,12,34,19.40
2013,08,26,12,35,19.50
2013,08,26,12,36,19.60
2013,08,26,12,37,19.70
2013,08,26,12,38,19.80
2013,08,26,12,39,19.80
2013,08,26,12,40,19.70
2013,08,26,12,41,19.70
2013,08,26,12,42,19.70
2013,08,26,12,43,19.60
2013,08,26,12,44,19.60
2013,08,26,12,45,19.50
2013,08,26,12,46,19.50
2013,08,26,12,47,19.50
2013,08,26,12,48,19.50
2013,08,26,12,49,19.50
2013,08,26,12,50,19.60
2013,08,26,12,51,19.60
2013,08,26,12,52,19.60
2013,08,26,12,53,19.60
2013,08,26,12,54,19.60
2013,08,26,12,55,19.60
2013,08,26,12,56,19.60
2013,08,26,12,57,19.60
2013,08,26,12,58,19.70
2013,08,26,12,59,19.70
2013,08,26,13,00,19.70
2013,08,26,13,01,19.70
2013,08,26,13,02,19.70
2013,08,26,13,03,19.70
2013,08,26,13,04,19.60
2013,08,26,13,05,19.60
2013,08,26,13,06,19.60
2013,08,26,13,07,19.70
2013,08,26,13,08,19.80
2013,08,26,13,09,19.90
2013,08,26,13,10,20.10
2013,08,26,13,11,20.20
2013,08,26,13,12,20.20
2013,08,26,13,13,20.40
2013,08,26,13,14,20.50
2013,08,26,13,15,20.50
2013,08,26,13,16,20.60
2013,08,26,13,17,20.60
2013,08,26,13,18,20.60
2013,08,26,13,19,20.60
2013,08,26,13,20,20.60
2013,08,26,13,21,20.60
2013,08,26,13,22,20.60
2013,08,26,13,23,20.70
2013,08,26,13,24,20.70
2013,08,26,13,25,20.70
2013,08,26,13,26,20.70
2013,08,26,13,27,20.70
2013,08,26,13,28,20.80
2013,08,26,13,29,20.80
2013,08,26,13,30,20.90
2013,08,26,13,31,21.00
2013,08,26,13,32,21.10
2013,08,26,13,33,21.10
2013,08,26,13,34,21.10
2013,08,26,13,35,21.20
2013,08,26,13,36,21.20
2013,08,26,13,37,21.30
2013,08,26,13,38,21.30
2013,08,26,13,39,21.30
2013,08,26,13,40,21.40
2013,08,26,13,41,21.40
2013,08,26,13,42,21.40
2013,08,26,13,43,21.40
2013,08,26,13,44,21.30
2013,08,26,13,45,21.30
2013,08,26,13,46,21.20
2013,08,26,13,47,21.20
2013,08,26,13,48,21.20
2013,08,26,13,49,21.10
2013,08,26,13,50,21.00
2013,08,26,13,51,21.00
2013,08,26,13,52,21.00
2013,08,26,13,53,21.00
2013,08,26,13,54,21.00
2013,08,26,13,55,21.00
2013,08,26,13,56,21.00
2013,08,26,13,57,21.00
2013,08,26,13,58,21.10
2013,08,26,13,59,21.10
2013,08,26,14,00,21.10
2013,08,26,14,01,21.10
2013,08,26,14,02,21.10
2013,08,26,14,03,21.00
2013,08,26,14,04,21.00
2013,08,26,14,05,21.00
2013,08,26,14,06,20.90
2013,08,26,14,07,20.90
2013,08,26,14,08,20.80
2013,08,26,14,09,20.80
2013,08,26,14,10,20.80
2013,08,26,14,11,20.80
2013,08,26,14,12,20.80
2013,08,26,14,13,20.80
2013,08,26,14,14,20.80
2013,08,26,14,15,20.70
2013,08,26,14,16,20.70
2013,08,26,14,17,20.60
2013,08,26,14,18,20.60
2013,08,26,14,19,20.50
2013,08,26,14,20,20.50
2013,08,26,14,21,20.40
2013,08,26,14,22,20.40
2013,08,26,14,23,20.40
2013,08,26,14,24,20.40
2013,08,26,14,25,20.40
2013,08,26,14,26,20.40
2013,08,26,14,27,20.40
2013,08,26,14,28,20.40
2013,08,26,14,29,20.40
2013,08,26,14,30,20.40
2013,08,26,14,31,20.40
2013,08,26,14,32,20.50
2013,08,26,14,33,20.50
2013,08,26,14,34,20.50
2013,08,26,14,35,20.50
2013,08,26,14,36,20.50
2013,08,26,14,37,20.50
2013,08,26,14,38,20.50
2013,08,26,14,39,20.50
2013,08,26,14,40,20.50
2013,08,26,14,41,20.50
2013,08,26,14,42,20.50
2013,08,26,14,43,20.50
2013,08,26,14,44,20.50
2013,08,26,14,45,20.50
2013,08,26,14,46,20.60
2013,08,26,14,47,20.50
2013,08,26,14,48,20.50
2013,08,26,14,49,20.50
2013,08,26,14,50,20.50
2013,08,26,14,51,20.50
2013,08,26,14,52,20.50
2013,08,26,14,53,20.40
2013,08,26,14,54,20.40
2013,08,26,14,55,20.40
2013,08,26,14,56,20.40
2013,08,26,14,57,20.30
2013,08,26,14,58,20.30
2013,08,26,14,59,20.20
2013,08,26,15,00,20.20
2013,08,26,15,01,20.10
2013,08,26,15,02,19.90
2013,08,26,15,03,19.90
2013,08,26,15,04,19.80
2013,08,26,15,05,19.70
2013,08,26,15,06,19.60
2013,08,26,15,07,19.50
2013,08,26,15,08,19.40
2013,08,26,15,09,19.30
2013,08,26,15,10,19.30
2013,08,26,15,11,19.20
2013,08,26,15,12,19.20
2013,08,26,15,13,19.20
2013,08,26,15,14,19.20
2013,08,26,15,15,19.20
2013,08,26,15,16,19.20
2013,08,26,15,17,19.20
2013,08,26,15,18,19.20
2013,08,26,15,19,19.10
2013,08,26,15,20,19.10
2013,08,26,15,21,19.10
2013,08,26,15,22,18.90
2013,08,26,15,23,18.70
2013,08,26,15,24,18.60
2013,08,26,15,25,18.40
2013,08,26,15,26,18.20
2013,08,26,15,27,18.20
2013,08,26,15,28,18.10
2013,08,26,15,29,17.90
2013,08,26,15,30,17.80
2013,08,26,15,31,17.70
2013,08,26,15,32,17.60
2013,08,26,15,33,17.50
2013,08,26,15,34,17.40
2013,08,26,15,35,17.30
2013,08,26,15,36,17.30
2013,08,26,15,37,17.30
2013,08,26,15,38,17.20
2013,08,26,15,39,17.20
2013,08,26,15,40,17.20
2013,08,26,15,41,17.20
2013,08,26,15,42,17.20
2013,08,26,15,43,17.20
2013,08,26,15,44,17.20
2013,08,26,15,45,17.20
2013,08,26,15,46,17.30
2013,08,26,15,47,17.30
2013,08,26,15,48,17.30
2013,08,26,15,49,17.30
2013,08,26,15,50,17.40
2013,08,26,15,51,17.50
2013,08,26,15,52,17.50
2013,08,26,15,53,17.60
2013,08,26,15,54,17.60
2013,08,26,15,55,17.70
2013,08,26,15,56,17.70
2013,08,26,15,57,17.70
2013,08,26,15,58,17.80
2013,08,26,15,59,17.80
2013,08,26,16,00,17.90
2013,08,26,16,01,17.90
2013,08,26,16,02,17.90
2013,08,26,16,03,17.90
2013,08,26,16,04,17.90
2013,08,26,16,05,17.90
2013,08,26,16,06,17.90
2013,08,26,16,07,17.90
2013,08,26,16,08,17.90
2013,08,26,16,09,17.90
2013,08,26,16,10,17.90
2013,08,26,16,11,17.90
2013,08,26,16,12,17.90
2013,08,26,16,13,17.90
2013,08,26,16,14,17.90
2013,08,26,16,15,17.90
2013,08,26,16,16,17.80
2013,08,26,16,17,17.80
2013,08,26,16,18,17.80
2013,08,26,16,19,17.70
2013,08,26,16,20,17.70
2013,08,26,16,21,17.60
2013,08,26,16,22,17.60
2013,08,26,16,23,17.50
2013,08,26,16,24,17.40
2013,08,26,16,25,17.30
2013,08,26,16,26,17.30
2013,08,26,16,27,17.30
2013,08,26,16,28,17.20
2013,08,26,16,29,17.10
2013,08,26,16,30,17.10
2013,08,26,16,31,17.00
2013,08,26,16,32,17.00
2013,08,26,16,33,16.90
2013,08,26,16,34,16.90
2013,08,26,16,35,16.90
2013,08,26,16,36,16.80
2013,08,26,16,37,16.80
2013,08,26,16,38,16.80
2013,08,26,16,39,16.70
2013,08,26,16,40,16.70
2013,08,26,16,41,16.70
2013,08,26,16,42,16.60
2013,08,26,16,43,16.60
2013,08,26,16,44,16.60
2013,08,26,16,45,16.60
2013,08,26,16,46,16.40
2013,08,26,16,47,16.40
2013,08,26,16,48,16.40
2013,08,26,16,49,16.40
2013,08,26,16,50,16.40
2013,08,26,16,51,16.40
2013,08,26,16,52,16.40
2013,08,26,16,53,16.40
2013,08,26,16,54,16.40
2013,08,26,16,55,16.40
2013,08,26,16,56,16.40
2013,08,26,16,57,16.40
2013,08,26,16,58,16.40
2013,08,26,16,59,16.30
2013,08,26,17,00,16.30
2013,08,26,17,01,16.30
2013,08,26,17,02,16.20
2013,08,26,17,03,16.20
2013,08,26,17,04,16.20
2013,08,26,17,05,16.10
2013,08,26,17,06,16.10
2013,08,26,17,07,16.10
2013,08,26,17,08,16.10
2013,08,26,17,09,16.10
2013,08,26,17,10,15.90
2013,08,26,17,11,15.90
2013,08,26,17,12,15.90
2013,08,26,17,13,15.80
2013,08,26,17,14,15.80
2013,08,26,17,15,15.80
2013,08,26,17,16,15.80
2013,08,26,17,17,15.80
2013,08,26,17,18,15.70
2013,08,26,17,19,15.70
2013,08,26,17,20,15.70
2013,08,26,17,21,15.70
2013,08,26,17,22,15.70
2013,08,26,17,23,15.70
2013,08,26,17,24,15.70
2013,08,26,17,25,15.70
2013,08,26,17,26,15.70
2013,08,26,17,27,15.70
2013,08,26,17,28,15.70
2013,08,26,17,29,15.70
2013,08,26,17,30,15.60
2013,08,26,17,31,15.60
2013,08,26,17,32,15.60
2013,08,26,17,33,15.70
2013,08,26,17,34,15.70
2013,08,26,17,35,15.60
2013,08,26,17,36,15.70
2013,08,26,17,37,15.70
2013,08,26,17,38,15.70
2013,08,26,17,39,15.70
2013,08,26,17,40,15.70
2013,08,26,17,41,15.70
2013,08,26,17,42,15.70
2013,08,26,17,43,15.70
2013,08,26,17,44,15.70
2013,08,26,17,45,15.70
2013,08,26,17,46,15.70
2013,08,26,17,47,15.70
2013,08,26,17,48,15.80
2013,08,26,17,49,15.80
2013,08,26,17,50,15.80
2013,08,26,17,51,15.80
2013,08,26,17,52,15.80
2013,08,26,17,53,15.80
2013,08,26,17,54,15.80
2013,08,26,17,55,15.80
2013,08,26,17,56,15.80
2013,08,26,17,57,15.80
2013,08,26,17,58,15.80
2013,08,26,17,59,15.80
2013,08,26,18,00,15.80
2013,08,26,18,01,15.80
2013,08,26,18,02,15.80
2013,08,26,18,03,15.80
2013,08,26,18,04,15.80
2013,08,26,18,05,15.80
2013,08,26,18,06,15.80
2013,08,26,18,07,15.80
2013,08,26,18,08,15.90
2013,08,26,18,09,15.90
2013,08,26,18,10,15.90
2013,08,26,18,11,15.90
2013,08,26,18,12,15.90
2013,08,26,18,13,15.90
2013,08,26,18,14,15.90
2013,08,26,18,15,15.90
2013,08,26,18,16,15.90
2013,08,26,18,17,15.90
2013,08,26,18,18,15.90
2013,08,26,18,19,15.90
2013,08,26,18,20,15.90
2013,08,26,18,21,15.90
2013,08,26,18,22,16.10
2013,08,26,18,23,16.10
2013,08,26,18,24,16.10
2013,08,26,18,25,16.10
2013,08,26,18,26,16.10
2013,08,26,18,27,16.10
2013,08,26,18,28,16.20
2013,08,26,18,29,16.20
2013,08,26,18,30,16.20
2013,08,26,18,31,16.20
2013,08,26,18,32,16.30
2013,08,26,18,33,16.30
2013,08,26,18,34,16.40
2013,08,26,18,35,16.40
2013,08,26,18,36,16.40
2013,08,26,18,37,16.40
2013,08,26,18,38,16.40
2013,08,26,18,39,16.40
2013,08,26,18,40,16.60
2013,08,26,18,41,16.60
2013,08,26,18,42,16.60
2013,08,26,18,43,16.70
2013,08,26,18,44,16.70
2013,08,26,18,45,16.70
2013,08,26,18,46,16.70
2013,08,26,18,47,16.70
2013,08,26,18,48,16.70
2013,08,26,18,49,16.70
2013,08,26,18,50,16.70
2013,08,26,18,51,16.80
2013,08,26,18,52,16.80
2013,08,26,18,53,16.80
2013,08,26,18,54,16.80
2013,08,26,18,55,16.70
2013,08,26,18,56,16.70
2013,08,26,18,57,16.70
2013,08,26,18,58,16.70
2013,08,26,18,59,16.70
2013,08,26,19,00,16.70
2013,08,26,19,01,16.70
2013,08,26,19,02,16.70
2013,08,26,19,03,16.70
2013,08,26,19,04,16.70
2013,08,26,19,05,16.70
2013,08,26,19,06,16.60
2013,08,26,19,07,16.60
2013,08,26,19,08,16.60
2013,08,26,19,09,16.60
2013,08,26,19,10,16.60
2013,08,26,19,11,16.40
2013,08,26,19,12,16.40
2013,08,26,19,13,16.40
2013,08,26,19,14,16.40
2013,08,26,19,15,16.40
2013,08,26,19,16,16.40
2013,08,26,19,17,16.30
2013,08,26,19,18,16.30
2013,08,26,19,19,16.30
2013,08,26,19,20,16.30
2013,08,26,19,21,16.30
2013,08,26,19,22,16.30
2013,08,26,19,23,16.30
2013,08,26,19,24,16.30
2013,08,26,19,25,16.30
2013,08,26,19,26,16.30
2013,08,26,19,27,16.30
2013,08,26,19,28,16.30
2013,08,26,19,29,16.30
2013,08,26,19,30,16.30
2013,08,26,19,31,16.30
2013,08,26,19,32,16.30
2013,08,26,19,33,16.30
2013,08,26,19,34,16.30
2013,08,26,19,35,16.20
2013,08,26,19,36,16.20
2013,08,26,19,37,16.20
2013,08,26,19,38,16.20
2013,08,26,19,39,16.30
2013,08,26,19,40,16.30
2013,08,26,19,41,16.30
2013,08,26,19,42,16.30
2013,08,26,19,43,16.30
2013,08,26,19,44,16.30
2013,08,26,19,45,16.30
2013,08,26,19,46,16.40
2013,08,26,19,47,16.40
2013,08,26,19,48,16.40
2013,08,26,19,49,16.40
2013,08,26,19,50,16.40
2013,08,26,19,51,16.40
2013,08,26,19,52,16.40
2013,08,26,19,53,16.40
2013,08,26,19,54,16.40
2013,08,26,19,55,16.40
2013,08,26,19,56,16.30
2013,08,26,19,57,16.30
2013,08,26,19,58,16.30
2013,08,26,19,59,16.30
2013,08,26,20,00,16.20
2013,08,26,20,01,16.20
2013,08,26,20,02,16.10
2013,08,26,20,03,16.10
2013,08,26,20,04,16.10
2013,08,26,20,05,15.90
2013,08,26,20,06,15.90
2013,08,26,20,07,15.80
2013,08,26,20,08,15.80
2013,08,26,20,09,15.80
2013,08,26,20,10,15.70
2013,08,26,20,11,15.70
2013,08,26,20,12,15.60
2013,08,26,20,13,15.60
2013,08,26,20,14,15.60
2013,08,26,20,15,15.50
2013,08,26,20,16,15.50
2013,08,26,20,17,15.50
2013,08,26,20,18,15.50
2013,08,26,20,19,15.50
2013,08,26,20,20,15.50
2013,08,26,20,21,15.40
2013,08,26,20,22,15.40
2013,08,26,20,23,15.40
2013,08,26,20,24,15.40
2013,08,26,20,25,15.30
2013,08,26,20,26,15.30
2013,08,26,20,27,15.30
2013,08,26,20,28,15.30
2013,08,26,20,29,15.20
2013,08,26,20,30,15.20
2013,08,26,20,31,15.20
2013,08,26,20,32,15.10
2013,08,26,20,33,15.10
2013,08,26,20,34,15.00
2013,08,26,20,35,15.00
2013,08,26,20,36,15.00
2013,08,26,20,37,14.90
2013,08,26,20,38,14.90
2013,08,26,20,39,14.90
2013,08,26,20,40,14.90
2013,08,26,20,41,14.80
2013,08,26,20,42,14.80
2013,08,26,20,43,14.80
2013,08,26,20,44,14.80
2013,08,26,20,45,14.80
2013,08,26,20,46,14.80
2013,08,26,20,47,14.80
2013,08,26,20,48,14.80
2013,08,26,20,49,14.80
2013,08,26,20,50,14.80
2013,08,26,20,51,14.80
2013,08,26,20,52,14.80
2013,08,26,20,53,14.80
2013,08,26,20,54,14.70
2013,08,26,20,55,14.70
2013,08,26,20,56,14.70
2013,08,26,20,57,14.70
2013,08,26,20,58,14.70
2013,08,26,20,59,14.70
2013,08,26,21,00,14.70
2013,08,26,21,01,14.70
2013,08,26,21,02,14.70
2013,08,26,21,03,14.70
2013,08,26,21,04,14.70
2013,08,26,21,05,14.70
2013,08,26,21,06,14.70
2013,08,26,21,07,14.70
2013,08,26,21,08,14.70
2013,08,26,21,09,14.70
2013,08,26,21,10,14.70
2013,08,26,21,11,14.70
2013,08,26,21,12,14.70
2013,08,26,21,13,14.70
2013,08,26,21,14,14.70
2013,08,26,21,15,14.70
2013,08,26,21,16,14.70
2013,08,26,21,17,14.70
2013,08,26,21,18,14.70
2013,08,26,21,19,14.70
2013,08,26,21,20,14.70
2013,08,26,21,21,14.70
2013,08,26,21,22,14.70
2013,08,26,21,23,14.80
2013,08,26,21,24,14.80
2013,08,26,21,25,14.80
2013,08,26,21,26,14.80
2013,08,26,21,27,14.80
2013,08,26,21,28,14.80
2013,08,26,21,29,14.80
2013,08,26,21,30,14.80
2013,08,26,21,31,14.80
2013,08,26,21,32,14.80
2013,08,26,21,33,14.80
2013,08,26,21,34,14.90
2013,08,26,21,35,14.90